Location: Waco, TX
(31.5480°N, 97.1670°W)
Time: 00:30:00
(UTC-05:00)

ISS - Pass Details

Date: 19 May 2018
Orbit: 402 x 407 km, 51.6° (Epoch: 24 May)

Event Time Altitude Azimuth Distance (km) Brightness Sun altitude
Rises 23:04:54 0° 257° (WSW) 2,309 0.3 -28.5°
Enters shadow 23:06:40 - 269° (W) 1,683 -0.3 -28.7°
Reaches altitude 10° 23:07:24 10° 277° (W) 1,451 - -28.8°
Maximum altitude 23:09:46 18° 324° (NW) 1,052 - -29.1°
Drops below altitude 10° 23:12:08 10° 11° (N) 1,454 - -29.4°
Sets 23:14:39 0° 30° (NNE) 2,315 - -29.7°
